CZ-3A DEB, 35547

Orbit data source: Space-Track

CZ-3A DEB, 35547 is space debris in LEO originally from a launch on Fri, 02 Feb 2007 UTC launched from the Xichang Space Center, China (XSC). Debris objects in space refer to the collection of defunct objects orbiting the Earth. Examples of debris include non-operational satellites, rocket bodies, and fragments generated from explosions, collisions, or faulty payload assembly.

Loading next visibility...
Identifier
35547, 2007-003F
Orbit
LEO
Country
Flag of CNCN / PRC
Related business
Manufacturer
Unknown
Mission
Spacecraft
Bus & Motor
Unknown
Mass
Unknown
Launch date (UTC)
2007-02-02 (19 years ago)
Launch vehicle
Unknown
Launch site
Xichang Space Center, China (XSC)
Object type
Payload
Rocket body
Debris
Shape & HBR
Unknown shape, 0.1 m
Radar Cross Section
Medium (>0.1 m² and <1 m²)

Expand to show TLE details & history
Last TLE update: 1 day ago

TLE from 1 day ago
0 CZ-3A DEB
1 35547U 07003F   25293.54116933  .00671679  30801-4  14464-1 0  9999
2 35547  24.5264 244.9875 1944259 206.1380 142.6599 11.59987541 20897
Epoch: 2025-10-20T12:59Z
TLE epoch observation values (Epoch: 2025-10-20T12:59:17.030Z)
Latitude
-0°
Longitude
20.92453°
Altitude
3,229.149 km
Speed
5.887 km/s
True Right ascension
16h 19m 56s
True Declination
0° 00' 00"
Sunlit
Object was in daylight at epoch
Visualization orbit readout
Latitude
Unknown
Longitude
Unknown
Altitude
Unknown
Speed
Unknown
Apparent Right ascension
Unknown
Apparent Declination
Unknown
Sunlit
N/A
Visualization observer readout
Local Sidereal Time
13:41:43
Azimuth
Unknown
Elevation
Unknown
Doppler factor
Unknown
Orbital elements
Apogee altitude
3,472.862 km
Perigee altitude
265.816 km
Semi-major axis
8,247.476 km
Eccentricity
0.19443
Inclination
24.5264°
RAAN
244.9875°
Arg. of periapsis
206.138°
True anomaly
153.90461°
Mean anomaly
142.6599°
Eccentric anomaly
148.4832°
Mean motion
2.89775 °/min
Orbital period
124.23 mins
BSTAR
0.014464
Loading maneuver chart data...
Computing Atmospheric mass density...
Loading historical data...
Loading historical data...
Loading historical data...
Loading historical data...
Loading historical data...
Loading historical data...
Loading historical data...

Documentation

Showing up to 5 results
|